CDT,Max TemperatureF,Mean TemperatureF,Min TemperatureF,Max Dew PointF,MeanDew PointF,Min DewpointF,Max Humidity, Mean Humidity, Min Humidity, Max Sea Level PressureIn, Mean Sea Level PressureIn, Min Sea Level PressureIn, Max VisibilityMiles, Mean VisibilityMiles, Min VisibilityMiles, Max Wind SpeedMPH, Mean Wind SpeedMPH, Max Gust SpeedMPH,PrecipitationIn, CloudCover, Events, WindDirDegrees
2013-10-1,78,63,48,55,44,28,71,45,18,29.98,29.80,29.66,10,10,10,21,8,25,0.00,0,,237
2013-10-2,76,57,38,54,41,35,100,62,23,30.10,30.00,29.89,10,9,0,18,6,24,0.37,3,Fog-Rain-Thunderstorm,115
2013-10-3,60,57,54,58,55,53,100,89,78,29.96,29.89,29.83,10,9,3,15,7,21,0.81,6,Rain-Thunderstorm,57
2013-10-4,59,57,55,57,55,54,100,93,86,30.01,29.97,29.91,10,9,2,17,10,22,0.08,8,Rain,63
2013-10-5,63,55,46,63,58,49,100,95,90,29.92,29.80,29.70,10,7,0,25,6,30,0.93,8,Fog-Rain,110
2013-10-6,59,50,40,49,44,39,100,78,55,29.79,29.72,29.69,10,6,0,14,5,18,0.03,5,Fog-Rain,252
2013-10-7,66,53,40,47,43,38,100,69,37,30.04,29.91,29.79,10,9,2,14,4,18,0.00,1,,278
2013-10-8,75,57,39,46,42,38,100,67,33,30.04,29.99,29.93,10,10,10,22,9,29,0.00,0,,171
2013-10-9,74,60,46,51,48,44,86,64,41,30.12,30.07,29.99,10,10,10,18,8,23,0.00,0,,179
2013-10-10,73,57,41,48,45,42,100,69,38,30.11,30.05,29.98,10,10,4,17,6,23,0.00,0,,137
2013-10-11,76,64,52,55,51,47,89,66,43,29.97,29.87,29.75,10,10,10,31,13,37,0.00,2,,136
2013-10-12,69,56,43,54,43,37,83,65,46,30.16,29.93,29.74,10,10,10,28,12,35,0.00,4,,244
2013-10-13,61,49,36,40,36,32,100,68,35,30.43,30.36,30.19,10,10,10,15,4,20,0.00,0,,270
2013-10-14,58,45,31,42,35,30,100,72,43,30.45,30.36,30.05,10,6,0,21,8,29,0.03,1,Fog-Rain,85
2013-10-15,56,52,47,54,48,43,100,90,80,30.04,29.76,29.69,10,8,3,20,8,25,0.82,8,Rain,191
2013-10-16,49,41,32,47,41,34,100,88,76,29.94,29.88,29.75,10,8,0,14,5,20,T,6,Fog-Rain,317
2013-10-17,54,43,31,45,37,32,100,80,59,29.91,29.85,29.78,10,5,0,10,3,12,0.02,3,Fog-Rain,211
2013-10-18,53,44,35,45,38,28,96,69,42,29.94,29.86,29.77,10,10,8,17,6,25,0.12,7,Rain,301
2013-10-19,47,41,34,39,35,32,100,85,70,29.85,29.75,29.69,10,10,10,15,6,20,0.01,5,Rain,234
2013-10-20,43,37,30,41,34,28,100,91,82,29.82,29.74,29.65,10,6,0,20,6,25,0.13,7,Fog-Rain,169
2013-10-21,37,34,30,34,26,19,85,69,52,29.94,29.90,29.81,10,10,10,20,12,26,T,8,,280
2013-10-22,39,32,25,29,26,22,92,76,59,30.04,29.99,29.94,10,10,10,12,4,14,0.00,5,,311
2013-10-23,40,32,24,31,27,22,92,76,59,30.08,30.02,29.98,10,10,9,16,6,22,0.01,7,Snow,290
2013-10-24,44,38,32,30,26,23,76,63,49,30.31,30.21,30.08,10,10,10,18,8,26,T,8,,290
2013-10-25,54,44,34,37,31,25,82,63,44,30.32,30.09,29.75,10,10,10,25,12,32,0.00,4,,227
2013-10-26,51,40,29,38,31,27,70,58,45,30.08,29.95,29.74,10,10,10,16,10,32,T,6,Rain,301
2013-10-27,60,44,27,32,29,25,92,62,31,30.14,29.95,29.82,10,10,10,17,7,23,0.00,1,,248
2013-10-28,44,35,25,30,23,18,78,57,36,30.46,30.38,30.17,10,10,10,18,8,25,0.00,0,,49
2013-10-29,44,35,26,36,29,22,85,74,62,30.45,30.31,30.14,10,10,10,14,7,17,T,6,Rain-Snow,70
2013-10-30,52,46,39,52,44,37,100,96,92,30.12,29.95,29.69,8,2,1,12,4,15,0.24,8,Rain,84
2013-10-31,52,46,40,52,48,38,100,95,89,29.65,29.47,29.36,10,3,0,16,7,21,0.04,8,Fog-Rain,267